Radiation Dose at Monitoring Post of Fukushima Daini Nuclear Power Station
Date,Time,MP-1(microSv/h),MP-2(microSv/h),MP-3(microSv/h),MP-4(microSv/h),MP-5(microSv/h),MP-6(microSv/h),MP-7(microSv/h),Wind Direction,Wind Velocity(m/s),Rain
2017/09/30,00:00,0.337,0.210,0.341,0.324,0.313,0.170,0.102,northwest,7.8,No
2017/09/30,00:10,0.337,0.210,0.342,0.321,0.312,0.169,0.100,northwest,6.2,No
2017/09/30,00:20,0.335,0.210,0.343,0.324,0.313,0.170,0.100,west-northwest,3.4,No
2017/09/30,00:30,0.340,0.210,0.343,0.321,0.314,0.171,0.101,northeast,1.4,No
2017/09/30,00:40,0.339,0.210,0.341,0.325,0.312,0.170,0.101,northeast,1.5,No
2017/09/30,00:50,0.336,0.209,0.343,0.323,0.314,0.170,0.100,north-northeast,1.8,No
2017/09/30,01:00,0.336,0.211,0.342,0.323,0.313,0.170,0.100,northwest,2.0,No
2017/09/30,01:10,0.339,0.210,0.344,0.322,0.313,0.170,0.100,northwest,2.6,No
2017/09/30,01:20,0.337,0.210,0.342,0.325,0.313,0.169,0.100,northwest,2.3,No
2017/09/30,01:30,0.337,0.210,0.343,0.322,0.313,0.170,0.100,northwest,2.0,No
2017/09/30,01:40,0.338,0.211,0.343,0.324,0.313,0.170,0.101,west,3.6,No
2017/09/30,01:50,0.337,0.210,0.343,0.323,0.313,0.170,0.101,west-northwest,5.0,No
2017/09/30,02:00,0.335,0.210,0.342,0.324,0.312,0.171,0.101,west-northwest,5.1,No
2017/09/30,02:10,0.338,0.210,0.342,0.321,0.313,0.170,0.101,west-northwest,3.9,No
2017/09/30,02:20,0.336,0.210,0.343,0.326,0.311,0.171,0.100,northwest,3.3,No
2017/09/30,02:30,0.338,0.210,0.342,0.324,0.313,0.170,0.101,west-northwest,2.4,No
2017/09/30,02:40,0.336,0.211,0.343,0.323,0.312,0.170,0.100,north-northwest,2.3,No
2017/09/30,02:50,0.338,0.210,0.340,0.322,0.314,0.168,0.100,north,4.2,No
2017/09/30,03:00,0.336,0.210,0.344,0.324,0.314,0.170,0.100,north,4.4,No
2017/09/30,03:10,0.337,0.210,0.341,0.322,0.313,0.170,0.101,north,5.8,No
2017/09/30,03:20,0.336,0.209,0.344,0.322,0.313,0.170,0.101,north-northeast,5.0,No
2017/09/30,03:30,0.337,0.210,0.343,0.323,0.313,0.171,0.101,north,4.2,No
2017/09/30,03:40,0.337,0.210,0.344,0.323,0.316,0.170,0.101,north-northeast,3.1,No
2017/09/30,03:50,0.337,0.211,0.341,0.324,0.313,0.171,0.101,north-northeast,4.3,No
2017/09/30,04:00,0.337,0.211,0.343,0.323,0.314,0.171,0.102,north,3.5,No
2017/09/30,04:10,0.339,0.210,0.343,0.325,0.311,0.171,0.101,north,4.1,No
2017/09/30,04:20,0.336,0.211,0.341,0.322,0.315,0.170,0.102,north-northeast,3.9,No
2017/09/30,04:30,0.338,0.210,0.344,0.325,0.311,0.171,0.101,north-northeast,3.5,No
2017/09/30,04:40,0.338,0.212,0.341,0.324,0.314,0.170,0.100,north-northeast,3.6,No
2017/09/30,04:50,0.336,0.209,0.345,0.324,0.311,0.170,0.101,north-northeast,2.5,No
2017/09/30,05:00,0.338,0.210,0.341,0.323,0.315,0.171,0.101,north,2.0,No
2017/09/30,05:10,0.336,0.210,0.345,0.321,0.311,0.170,0.101,north-northeast,2.2,No
2017/09/30,05:20,0.339,0.209,0.342,0.325,0.315,0.171,0.101,north-northeast,1.4,No
2017/09/30,05:30,0.336,0.211,0.344,0.323,0.311,0.170,0.101,northeast,1.4,No
2017/09/30,05:40,0.338,0.209,0.342,0.323,0.314,0.170,0.101,east-northeast,1.0,No
2017/09/30,05:50,0.336,0.211,0.342,0.322,0.313,0.169,0.101,east-northeast,1.1,No
2017/09/30,06:00,0.337,0.210,0.342,0.325,0.314,0.170,0.100,east,1.3,No
2017/09/30,06:10,0.336,0.209,0.341,0.324,0.313,0.170,0.100,-,CALM,No
2017/09/30,06:20,0.337,0.210,0.344,0.323,0.314,0.170,0.101,-,CALM,No
2017/09/30,06:30,0.336,0.210,0.341,0.323,0.313,0.171,0.101,north,0.7,No
2017/09/30,06:40,0.338,0.211,0.344,0.322,0.313,0.170,0.101,-,CALM,No
2017/09/30,06:50,0.337,0.211,0.342,0.323,0.314,0.171,0.100,north,1.1,No
2017/09/30,07:00,0.338,0.211,0.344,0.323,0.314,0.170,0.101,-,CALM,No
2017/09/30,07:10,0.337,0.210,0.342,0.325,0.313,0.170,0.100,south,0.8,No
2017/09/30,07:20,0.339,0.209,0.344,0.324,0.313,0.169,0.100,south-southwest,0.8,No
2017/09/30,07:30,0.335,0.210,0.340,0.322,0.312,0.171,0.101,south,1.1,No
2017/09/30,07:40,0.339,0.210,0.344,0.324,0.313,0.171,0.101,south-southeast,0.8,No
2017/09/30,07:50,0.335,0.210,0.342,0.322,0.310,0.171,0.102,south-southeast,0.8,No
2017/09/30,08:00,0.339,0.210,0.343,0.324,0.315,0.170,0.100,south,1.5,No
2017/09/30,08:10,0.335,0.210,0.341,0.322,0.312,0.171,0.101,south,1.4,No
2017/09/30,08:20,0.338,0.211,0.344,0.325,0.311,0.171,0.100,south,2.6,No
2017/09/30,08:30,0.337,0.210,0.340,0.325,0.315,0.170,0.100,south,3.1,No
2017/09/30,08:40,0.335,0.212,0.343,0.322,0.311,0.171,0.100,south,3.3,No
2017/09/30,08:50,0.339,0.210,0.342,0.325,0.313,0.170,0.101,south,1.7,No
2017/09/30,09:00,0.335,0.210,0.342,0.323,0.315,0.170,0.100,southeast,1.5,No
2017/09/30,09:10,0.336,0.211,0.344,0.324,0.310,0.172,0.100,south,1.0,No
2017/09/30,09:20,0.337,0.209,0.340,0.326,0.313,0.170,0.100,-,CALM,No
2017/09/30,09:30,0.334,0.211,0.344,0.322,0.313,0.170,0.100,southwest,2.7,No
2017/09/30,09:40,0.338,0.211,0.342,0.321,0.309,0.171,0.101,southwest,2.6,No
2017/09/30,09:50,0.337,0.209,0.342,0.325,0.314,0.170,0.099,west-southwest,2.8,No
2017/09/30,10:00,0.335,0.211,0.344,0.324,0.315,0.170,0.098,west-southwest,1.8,No
2017/09/30,10:10,0.333,0.212,0.342,0.321,0.312,0.171,0.100,west-southwest,2.1,No
2017/09/30,10:20,0.338,0.210,0.340,0.320,0.311,0.171,0.101,west,2.1,No
2017/09/30,10:30,0.337,0.209,0.345,0.325,0.310,0.168,0.100,west-northwest,2.1,No
2017/09/30,10:40,0.336,0.210,0.342,0.323,0.316,0.170,0.099,-,CALM,No
2017/09/30,10:50,0.334,0.212,0.339,0.323,0.315,0.170,0.099,south,4.9,No
2017/09/30,11:00,0.332,0.211,0.340,0.321,0.312,0.171,0.100,south-southeast,4.0,No
2017/09/30,11:10,0.336,0.210,0.344,0.322,0.312,0.169,0.099,south,2.9,No
2017/09/30,11:20,0.338,0.208,0.343,0.320,0.310,0.170,0.100,south-southeast,4.2,No
2017/09/30,11:30,0.337,0.208,0.341,0.322,0.309,0.171,0.099,south,4.0,No
2017/09/30,11:40,0.334,0.212,0.343,0.325,0.313,0.171,0.099,south,5.3,No
2017/09/30,11:50,0.338,0.211,0.345,0.325,0.315,0.171,0.099,south,6.1,No
2017/09/30,12:00,0.339,0.209,0.341,0.323,0.312,0.169,0.100,south,6.5,No
2017/09/30,12:10,0.336,0.209,0.340,0.322,0.311,0.170,0.099,south,7.0,No
2017/09/30,12:20,0.334,0.213,0.346,0.328,0.315,0.171,0.099,south-southwest,6.7,No
2017/09/30,12:30,0.339,0.212,0.344,0.326,0.316,0.170,0.100,south,7.4,No
2017/09/30,12:40,0.339,0.209,0.342,0.322,0.313,0.171,0.100,south-southwest,9.0,No
2017/09/30,12:50,0.337,0.210,0.339,0.321,0.311,0.171,0.099,south,9.0,No
2017/09/30,13:00,0.334,0.208,0.342,0.321,0.310,0.171,0.098,south,8.2,No
2017/09/30,13:10,0.333,0.210,0.345,0.325,0.314,0.170,0.099,south,7.9,No
2017/09/30,13:20,0.341,0.212,0.343,0.324,0.314,0.170,0.100,south,8.0,No
2017/09/30,13:30,0.338,0.211,0.341,0.323,0.312,0.170,0.101,south,7.4,No
2017/09/30,13:40,0.335,0.210,0.342,0.325,0.311,0.172,0.099,south,7.3,No
2017/09/30,13:50,0.336,0.211,0.345,0.325,0.316,0.171,0.099,south,7.2,No
2017/09/30,14:00,0.339,0.212,0.343,0.324,0.313,0.170,0.100,south,8.8,No
2017/09/30,14:10,0.337,0.210,0.342,0.325,0.312,0.172,0.099,south-southwest,8.8,No
2017/09/30,14:20,0.336,0.209,0.345,0.327,0.314,0.173,0.100,south-southwest,7.8,No
2017/09/30,14:30,0.340,0.211,0.347,0.324,0.315,0.171,0.099,south,7.0,No
2017/09/30,14:40,0.337,0.212,0.341,0.322,0.312,0.170,0.101,south,7.0,No
2017/09/30,14:50,0.336,0.210,0.342,0.326,0.312,0.170,0.100,south,6.5,No
2017/09/30,15:00,0.340,0.211,0.346,0.326,0.315,0.170,0.101,south,9.6,No
2017/09/30,15:10,0.338,0.210,0.343,0.323,0.313,0.170,0.100,south,8.9,No
2017/09/30,15:20,0.337,0.213,0.342,0.326,0.313,0.173,0.099,south,7.8,No
2017/09/30,15:30,0.341,0.211,0.346,0.325,0.316,0.171,0.100,south,9.5,No
2017/09/30,15:40,0.338,0.212,0.341,0.327,0.313,0.170,0.100,south-southwest,8.9,No
2017/09/30,15:50,0.336,0.210,0.346,0.326,0.315,0.171,0.100,south,8.3,No
2017/09/30,16:00,0.340,0.211,0.345,0.324,0.316,0.172,0.100,south,8.2,No
2017/09/30,16:10,0.337,0.211,0.343,0.327,0.312,0.170,0.101,south-southwest,8.1,No
2017/09/30,16:20,0.338,0.210,0.346,0.323,0.316,0.171,0.101,south-southwest,7.3,No
2017/09/30,16:30,0.339,0.213,0.342,0.327,0.315,0.172,0.099,south-southwest,6.5,No
2017/09/30,16:40,0.336,0.212,0.346,0.325,0.312,0.171,0.101,south-southwest,7.5,No
2017/09/30,16:50,0.340,0.212,0.345,0.323,0.313,0.171,0.100,south-southwest,6.3,No
2017/09/30,17:00,0.336,0.211,0.343,0.327,0.316,0.172,0.101,south-southwest,5.9,No
2017/09/30,17:10,0.340,0.212,0.346,0.322,0.313,0.171,0.101,southwest,5.9,No
2017/09/30,17:20,0.338,0.212,0.342,0.326,0.315,0.171,0.100,southwest,4.8,No
2017/09/30,17:30,0.336,0.211,0.346,0.326,0.315,0.171,0.101,west-southwest,3.1,No
2017/09/30,17:40,0.340,0.211,0.342,0.324,0.313,0.171,0.101,west-southwest,2.1,No
2017/09/30,17:50,0.336,0.213,0.343,0.326,0.316,0.172,0.102,west-northwest,1.6,No
2017/09/30,18:00,0.341,0.212,0.345,0.323,0.312,0.172,0.101,northwest,2.6,No
2017/09/30,18:10,0.338,0.211,0.344,0.328,0.316,0.171,0.102,northwest,1.9,No
2017/09/30,18:20,0.339,0.212,0.345,0.324,0.314,0.171,0.101,northwest,2.0,No
2017/09/30,18:30,0.339,0.212,0.343,0.326,0.314,0.171,0.101,west,3.4,No
2017/09/30,18:40,0.338,0.212,0.347,0.326,0.315,0.171,0.101,northwest,2.6,No
2017/09/30,18:50,0.340,0.210,0.343,0.326,0.314,0.171,0.100,north-northwest,3.9,No
2017/09/30,19:00,0.338,0.212,0.346,0.325,0.316,0.171,0.102,northwest,5.3,No
2017/09/30,19:10,0.340,0.211,0.342,0.325,0.312,0.171,0.101,northwest,5.3,No
2017/09/30,19:20,0.337,0.212,0.346,0.326,0.315,0.172,0.101,west-northwest,4.7,No
2017/09/30,19:30,0.339,0.211,0.344,0.324,0.313,0.170,0.101,west,4.8,No
2017/09/30,19:40,0.337,0.212,0.346,0.327,0.316,0.172,0.102,west,5.9,No
2017/09/30,19:50,0.340,0.212,0.343,0.325,0.314,0.171,0.101,west-northwest,4.4,No
2017/09/30,20:00,0.340,0.212,0.346,0.327,0.317,0.172,0.101,west-northwest,4.9,No
2017/09/30,20:10,0.339,0.212,0.345,0.324,0.314,0.171,0.100,west-northwest,4.9,No
2017/09/30,20:20,0.338,0.211,0.347,0.326,0.315,0.170,0.103,west-northwest,4.8,No
2017/09/30,20:30,0.341,0.213,0.344,0.325,0.314,0.172,0.101,west-northwest,6.5,No
2017/09/30,20:40,0.340,0.211,0.347,0.326,0.317,0.171,0.101,west-northwest,7.3,No
2017/09/30,20:50,0.338,0.211,0.343,0.325,0.313,0.172,0.101,west-northwest,8.7,No
2017/09/30,21:00,0.339,0.211,0.346,0.326,0.316,0.172,0.101,west-northwest,6.9,No
2017/09/30,21:10,0.339,0.212,0.344,0.326,0.313,0.171,0.102,west-northwest,6.2,No
2017/09/30,21:20,0.339,0.212,0.346,0.326,0.316,0.171,0.101,west-northwest,6.6,No
2017/09/30,21:30,0.341,0.212,0.344,0.327,0.313,0.171,0.102,west-northwest,6.9,No
2017/09/30,21:40,0.339,0.213,0.346,0.325,0.315,0.171,0.101,west-northwest,6.4,No
2017/09/30,21:50,0.341,0.211,0.344,0.327,0.315,0.171,0.102,west-northwest,5.8,No
2017/09/30,22:00,0.338,0.212,0.347,0.325,0.315,0.172,0.102,west-northwest,5.6,No
2017/09/30,22:10,0.341,0.212,0.343,0.327,0.315,0.171,0.101,northwest,4.6,No
2017/09/30,22:20,0.339,0.211,0.347,0.324,0.313,0.171,0.102,west-northwest,3.8,No
2017/09/30,22:30,0.340,0.213,0.343,0.327,0.315,0.172,0.101,west-northwest,2.8,No
2017/09/30,22:40,0.340,0.210,0.344,0.326,0.313,0.172,0.102,northwest,2.7,No
2017/09/30,22:50,0.340,0.211,0.346,0.326,0.316,0.172,0.101,northwest,2.9,No
2017/09/30,23:00,0.339,0.211,0.346,0.326,0.313,0.172,0.100,northwest,3.3,No
2017/09/30,23:10,0.339,0.211,0.346,0.325,0.316,0.173,0.101,west-northwest,4.2,No
2017/09/30,23:20,0.340,0.212,0.345,0.326,0.314,0.173,0.102,west-northwest,5.6,No
2017/09/30,23:30,0.339,0.212,0.347,0.326,0.316,0.170,0.101,west-northwest,5.7,No
2017/09/30,23:40,0.340,0.212,0.344,0.326,0.313,0.171,0.101,west-northwest,5.4,No
2017/09/30,23:50,0.340,0.213,0.346,0.325,0.315,0.171,0.102,west-northwest,5.7,No
